DAL8635 KLAX-KSLC

Flight info

Callsign DAL8635
Flight time 1h 29m
Altitude 37000
Route ORCKA5 LAS Q70 BLIPP Q842 WINEN MLF QWENN6
Aircraft A321/M-SDE3FGHIRWY/LB1

Departure

Time 2026-04-22 23:55
Airport Los Angeles International Airport (KLAX)

Arrival

Time 2026-04-23 01:24
Airport Salt Lake City International Airport (KSLC)
Time Latitude Longitude Altitude Speed Heading
2026-04-22 23:26 33.94791 -118.40123 94 ft 0 kts 185°
2026-04-22 23:46 33.94792 -118.40123 93 ft 2 kts 185°
2026-04-22 23:47 33.94803 -118.40122 93 ft 3 kts 188°
2026-04-22 23:47 33.94826 -118.40124 92 ft 4 kts 137°
2026-04-22 23:47 33.94834 -118.40149 92 ft 4 kts 86°
2026-04-22 23:47 33.94833 -118.40166 91 ft 1 kts 83°
2026-04-22 23:48 33.94833 -118.40168 91 ft 0 kts 83°
2026-04-22 23:51 33.94833 -118.40164 91 ft 3 kts 83°
2026-04-22 23:52 33.94839 -118.40116 93 ft 12 kts 76°
2026-04-22 23:52 33.94901 -118.40074 95 ft 9 kts 31°
2026-04-22 23:52 33.94923 -118.40006 93 ft 9 kts 82°
2026-04-22 23:52 33.94941 -118.39937 94 ft 8 kts 54°
2026-04-22 23:53 33.94945 -118.39931 93 ft 0 kts 47°
2026-04-22 23:53 33.94950 -118.39925 95 ft 5 kts 44°
2026-04-22 23:53 33.95006 -118.39911 94 ft 9 kts 356°
2026-04-22 23:54 33.95042 -118.39947 95 ft 8 kts 276°
2026-04-22 23:54 33.95028 -118.40089 95 ft 36 kts 263°
2026-04-22 23:54 33.94971 -118.40659 98 ft 98 kts 263°
2026-04-22 23:54 33.94865 -118.41679 98 ft 145 kts 263°
2026-04-22 23:55 33.94699 -118.43380 700 ft 150 kts 262°
2026-04-22 23:55 33.94614 -118.44209 1127 ft 150 kts 263°
2026-04-22 23:55 33.94478 -118.45450 1805 ft 147 kts 263°
2026-04-22 23:55 33.94330 -118.46689 2220 ft 156 kts 263°
2026-04-22 23:56 33.94170 -118.48058 2500 ft 173 kts 263°
2026-04-22 23:56 33.94002 -118.49544 2771 ft 185 kts 263°
2026-04-22 23:56 33.93819 -118.51159 2958 ft 205 kts 264°
2026-04-22 23:56 33.93625 -118.52957 3113 ft 230 kts 264°
2026-04-22 23:57 33.93408 -118.54960 3495 ft 250 kts 264°
2026-04-22 23:57 33.93174 -118.57073 4182 ft 258 kts 263°
2026-04-22 23:57 33.92931 -118.59239 4974 ft 264 kts 263°
2026-04-22 23:57 33.92684 -118.61447 5780 ft 268 kts 264°
2026-04-22 23:58 33.92436 -118.63664 6693 ft 267 kts 264°
2026-04-22 23:58 33.92185 -118.65884 7512 ft 268 kts 264°
2026-04-22 23:58 33.91932 -118.68107 8358 ft 268 kts 264°
2026-04-22 23:58 33.91504 -118.70301 9172 ft 273 kts 248°
2026-04-22 23:59 33.90389 -118.72160 9982 ft 281 kts 225°
2026-04-22 23:59 33.88651 -118.73292 10701 ft 294 kts 199°
2026-04-22 23:59 33.86570 -118.73340 11374 ft 311 kts 171°
2026-04-22 23:59 33.84610 -118.72133 11954 ft 331 kts 143°
2026-04-23 00:00 33.82738 -118.66813 12321 ft 376 kts 84°
2026-04-23 00:00 33.83373 -118.63764 12811 ft 379 kts 63°
2026-04-23 00:00 33.84631 -118.60978 13419 ft 380 kts 53°
2026-04-23 00:01 33.86125 -118.58339 14041 ft 383 kts 50°
2026-04-23 00:01 33.87653 -118.55685 14596 ft 389 kts 51°
2026-04-23 00:01 33.89120 -118.52921 15128 ft 395 kts 54°
2026-04-23 00:01 33.90499 -118.50030 15677 ft 401 kts 57°
2026-04-23 00:02 33.91802 -118.47033 16237 ft 407 kts 59°
2026-04-23 00:02 33.93068 -118.44012 16775 ft 410 kts 56°
2026-04-23 00:02 33.94578 -118.41091 17323 ft 413 kts 52°
2026-04-23 00:02 33.96162 -118.38187 17862 ft 417 kts 51°
2026-04-23 00:03 33.97813 -118.35235 18421 ft 421 kts 51°
2026-04-23 00:03 33.99454 -118.32350 18858 ft 425 kts 50°
2026-04-23 00:03 34.01163 -118.29362 19346 ft 429 kts 50°
2026-04-23 00:03 34.02863 -118.26394 19831 ft 432 kts 51°
2026-04-23 00:04 34.04552 -118.23440 20355 ft 434 kts 51°
2026-04-23 00:04 34.06266 -118.20433 20854 ft 437 kts 51°
2026-04-23 00:04 34.07992 -118.17392 21301 ft 441 kts 51°
2026-04-23 00:04 34.09726 -118.14327 21752 ft 445 kts 51°
2026-04-23 00:05 34.11471 -118.11231 22194 ft 448 kts 51°
2026-04-23 00:05 34.13233 -118.08099 22637 ft 452 kts 51°
2026-04-23 00:05 34.15001 -118.04953 23070 ft 456 kts 51°
2026-04-23 00:05 34.16793 -118.01765 23465 ft 460 kts 51°
2026-04-23 00:06 34.18598 -117.98556 23850 ft 464 kts 51°
2026-04-23 00:06 34.20416 -117.95327 24212 ft 467 kts 51°
2026-04-23 00:06 34.22253 -117.92070 24568 ft 469 kts 51°
2026-04-23 00:06 34.24091 -117.88806 24939 ft 472 kts 51°
2026-04-23 00:07 34.25936 -117.85517 25294 ft 474 kts 51°
2026-04-23 00:07 34.27789 -117.82206 25669 ft 476 kts 51°
2026-04-23 00:07 34.29640 -117.78888 26032 ft 478 kts 51°
2026-04-23 00:07 34.31503 -117.75544 26370 ft 480 kts 51°
2026-04-23 00:08 34.33373 -117.72183 26731 ft 482 kts 51°
2026-04-23 00:08 34.35257 -117.68806 27085 ft 485 kts 51°
2026-04-23 00:08 34.37182 -117.65450 27421 ft 486 kts 50°
2026-04-23 00:08 34.39159 -117.62129 27754 ft 488 kts 49°
2026-04-23 00:09 34.41174 -117.58812 28083 ft 490 kts 49°
2026-04-23 00:09 34.43207 -117.55486 28399 ft 492 kts 49°
2026-04-23 00:09 34.45242 -117.52139 28735 ft 495 kts 49°
2026-04-23 00:09 34.47278 -117.48761 29019 ft 499 kts 49°
2026-04-23 00:10 34.49295 -117.45385 29309 ft 502 kts 49°
2026-04-23 00:10 34.51360 -117.41901 29627 ft 504 kts 50°
2026-04-23 00:10 34.53378 -117.38485 29912 ft 506 kts 50°
2026-04-23 00:10 34.55423 -117.35017 30174 ft 508 kts 50°
2026-04-23 00:11 34.57482 -117.31531 30422 ft 510 kts 50°
2026-04-23 00:11 34.59556 -117.28021 30672 ft 512 kts 50°
2026-04-23 00:11 34.61637 -117.24500 30907 ft 514 kts 50°
2026-04-23 00:11 34.63728 -117.20966 31138 ft 516 kts 50°
2026-04-23 00:12 34.65824 -117.17423 31416 ft 516 kts 50°
2026-04-23 00:12 34.67910 -117.13886 31778 ft 516 kts 50°
2026-04-23 00:12 34.69997 -117.10340 32120 ft 516 kts 50°
2026-04-23 00:12 34.72083 -117.06791 32463 ft 515 kts 50°
2026-04-23 00:13 34.74165 -117.03245 32790 ft 515 kts 50°
2026-04-23 00:13 34.76243 -116.99698 33127 ft 515 kts 50°
2026-04-23 00:13 34.78324 -116.96142 33482 ft 515 kts 50°
2026-04-23 00:13 34.80400 -116.92592 33833 ft 515 kts 50°
2026-04-23 00:14 34.82477 -116.89044 34146 ft 515 kts 49°
2026-04-23 00:14 34.84558 -116.85492 34412 ft 516 kts 49°
2026-04-23 00:14 34.86646 -116.81929 34634 ft 517 kts 49°
2026-04-23 00:14 34.88739 -116.78357 34879 ft 518 kts 49°
2026-04-23 00:15 34.90829 -116.74783 35139 ft 518 kts 49°
2026-04-23 00:15 34.93067 -116.71370 35353 ft 512 kts 40°
2026-04-23 00:15 34.95480 -116.68188 35592 ft 512 kts 40°
2026-04-23 00:15 34.97903 -116.64999 35840 ft 512 kts 40°
2026-04-23 00:16 35.00322 -116.61814 36082 ft 512 kts 40°
2026-04-23 00:16 35.02744 -116.58624 36330 ft 512 kts 40°
2026-04-23 00:16 35.05166 -116.55432 36598 ft 513 kts 40°
2026-04-23 00:16 35.07587 -116.52238 36830 ft 513 kts 39°
2026-04-23 00:17 35.10011 -116.49034 36978 ft 513 kts 39°
2026-04-23 00:17 35.14837 -116.42649 36993 ft 511 kts 40°
2026-04-23 00:18 35.19656 -116.36267 36992 ft 511 kts 40°
2026-04-23 00:18 35.24465 -116.29876 36998 ft 510 kts 40°
2026-04-23 00:19 35.29270 -116.23472 36989 ft 511 kts 40°
2026-04-23 00:19 35.34072 -116.17063 36980 ft 510 kts 40°
2026-04-23 00:20 35.38870 -116.10648 36991 ft 511 kts 40°
2026-04-23 00:20 35.43669 -116.04229 36997 ft 511 kts 40°
2026-04-23 00:21 35.48475 -115.97800 37011 ft 511 kts 40°
2026-04-23 00:21 35.53267 -115.91351 37016 ft 511 kts 40°
2026-04-23 00:22 35.58060 -115.84891 37019 ft 512 kts 40°
2026-04-23 00:22 35.62863 -115.78422 37023 ft 512 kts 40°
2026-04-23 00:23 35.67643 -115.71918 37027 ft 513 kts 41°
2026-04-23 00:23 35.72390 -115.65351 37026 ft 513 kts 41°
2026-04-23 00:24 35.77127 -115.58787 37024 ft 512 kts 41°
2026-04-23 00:24 35.81869 -115.52242 37033 ft 512 kts 41°
2026-04-23 00:25 35.86623 -115.45696 37049 ft 513 kts 41°
2026-04-23 00:25 35.91371 -115.39124 37031 ft 513 kts 41°
2026-04-23 00:26 35.96081 -115.32569 37044 ft 514 kts 41°
2026-04-23 00:26 36.00830 -115.25956 37002 ft 515 kts 41°
2026-04-23 00:27 36.05611 -115.19287 36977 ft 515 kts 41°
2026-04-23 00:27 36.10597 -115.13149 36980 ft 505 kts 32°
2026-04-23 00:28 36.15916 -115.07447 36952 ft 506 kts 32°
2026-04-23 00:28 36.21236 -115.01722 36918 ft 507 kts 32°
2026-04-23 00:29 36.26557 -114.95975 36918 ft 508 kts 32°
2026-04-23 00:29 36.31883 -114.90216 36908 ft 508 kts 32°
2026-04-23 00:30 36.37200 -114.84445 36896 ft 508 kts 32°
2026-04-23 00:30 36.42522 -114.78668 36887 ft 508 kts 33°
2026-04-23 00:31 36.47843 -114.72873 36908 ft 509 kts 33°
2026-04-23 00:31 36.53166 -114.67072 36893 ft 509 kts 33°
2026-04-23 00:32 36.58496 -114.61268 36885 ft 509 kts 33°
2026-04-23 00:32 36.63817 -114.55439 36883 ft 509 kts 33°
2026-04-23 00:33 36.69134 -114.49614 36889 ft 509 kts 33°
2026-04-23 00:33 36.74777 -114.44552 36909 ft 495 kts 22°
2026-04-23 00:34 36.80628 -114.39982 36882 ft 497 kts 22°
2026-04-23 00:34 36.86449 -114.35421 36914 ft 498 kts 22°
2026-04-23 00:35 36.92314 -114.30816 36899 ft 498 kts 22°
2026-04-23 00:35 36.98179 -114.26193 36904 ft 498 kts 22°
2026-04-23 00:36 37.04047 -114.21563 36912 ft 500 kts 23°
2026-04-23 00:36 37.09921 -114.16911 36893 ft 500 kts 23°
2026-04-23 00:36 37.12858 -114.14584 36358 ft 500 kts 23°
2026-04-23 00:37 37.15800 -114.12252 35702 ft 501 kts 22°
2026-04-23 00:37 37.18746 -114.09916 35125 ft 500 kts 22°
2026-04-23 00:37 37.21678 -114.07586 34904 ft 500 kts 22°
2026-04-23 00:38 37.27586 -114.02894 34943 ft 504 kts 22°
2026-04-23 00:38 37.32514 -113.98974 34907 ft 505 kts 23°
2026-04-23 00:39 37.38455 -113.94226 34909 ft 506 kts 23°
2026-04-23 00:39 37.44394 -113.89473 34913 ft 506 kts 23°
2026-04-23 00:40 37.50333 -113.84727 34920 ft 506 kts 23°
2026-04-23 00:40 37.56231 -113.80001 34935 ft 505 kts 23°
2026-04-23 00:41 37.62165 -113.75225 34922 ft 502 kts 23°
2026-04-23 00:41 37.68062 -113.70478 34915 ft 503 kts 24°
2026-04-23 00:42 37.73961 -113.65710 34913 ft 503 kts 24°
2026-04-23 00:42 37.79861 -113.60936 34906 ft 503 kts 24°
2026-04-23 00:43 37.85745 -113.56172 34899 ft 501 kts 24°
2026-04-23 00:43 37.91605 -113.51419 34905 ft 500 kts 25°
2026-04-23 00:44 37.97076 -113.45790 34894 ft 511 kts 35°
2026-04-23 00:44 38.02361 -113.39776 34896 ft 512 kts 35°
2026-04-23 00:45 38.07644 -113.33782 34892 ft 513 kts 35°
2026-04-23 00:45 38.12984 -113.27716 34893 ft 511 kts 35°
2026-04-23 00:46 38.18272 -113.21694 34918 ft 510 kts 35°
2026-04-23 00:46 38.23551 -113.15661 34950 ft 510 kts 35°
2026-04-23 00:47 38.28789 -113.09657 34988 ft 510 kts 36°
2026-04-23 00:47 38.34133 -113.03615 34998 ft 508 kts 30°
2026-04-23 00:48 38.40050 -112.99176 34997 ft 488 kts 13°
2026-04-23 00:48 38.46321 -112.95859 34999 ft 488 kts 13°
2026-04-23 00:49 38.52587 -112.92525 34990 ft 488 kts 13°
2026-04-23 00:49 38.58858 -112.89174 34965 ft 488 kts 13°
2026-04-23 00:50 38.65120 -112.85817 34899 ft 489 kts 14°
2026-04-23 00:50 38.68257 -112.84132 34620 ft 489 kts 14°
2026-04-23 00:50 38.71393 -112.82444 34387 ft 489 kts 14°
2026-04-23 00:50 38.74531 -112.80757 34155 ft 489 kts 14°
2026-04-23 00:51 38.77672 -112.79072 33925 ft 490 kts 14°
2026-04-23 00:51 38.80817 -112.77385 33666 ft 491 kts 13°
2026-04-23 00:51 38.83967 -112.75691 33396 ft 492 kts 13°
2026-04-23 00:51 38.87125 -112.73990 33169 ft 493 kts 14°
2026-04-23 00:52 38.90280 -112.72283 32830 ft 490 kts 14°
2026-04-23 00:52 38.93405 -112.70585 32229 ft 487 kts 14°
2026-04-23 00:52 38.96521 -112.68889 31678 ft 485 kts 14°
2026-04-23 00:52 38.99614 -112.67206 31127 ft 482 kts 14°
2026-04-23 00:53 39.02703 -112.65531 30569 ft 480 kts 14°
2026-04-23 00:53 39.05777 -112.63866 30013 ft 478 kts 14°
2026-04-23 00:53 39.08831 -112.62212 29456 ft 475 kts 14°
2026-04-23 00:53 39.11864 -112.60566 28867 ft 472 kts 13°
2026-04-23 00:54 39.14881 -112.58926 28402 ft 467 kts 13°
2026-04-23 00:54 39.17829 -112.57311 28263 ft 454 kts 13°
2026-04-23 00:54 39.20691 -112.55734 28130 ft 441 kts 13°
2026-04-23 00:54 39.23484 -112.54193 27814 ft 433 kts 13°
2026-04-23 00:55 39.26240 -112.52688 27397 ft 428 kts 12°
2026-04-23 00:55 39.28971 -112.51207 26958 ft 424 kts 12°
2026-04-23 00:55 39.31685 -112.49727 26511 ft 422 kts 13°
2026-04-23 00:55 39.34366 -112.48229 26091 ft 418 kts 13°
2026-04-23 00:56 39.37023 -112.46714 25437 ft 416 kts 13°
2026-04-23 00:56 39.39649 -112.45194 24813 ft 412 kts 14°
2026-04-23 00:56 39.42247 -112.43678 24081 ft 407 kts 13°
2026-04-23 00:56 39.44816 -112.42185 23298 ft 403 kts 13°
2026-04-23 00:57 39.47368 -112.40713 22629 ft 402 kts 14°
2026-04-23 00:57 39.49885 -112.39267 22193 ft 399 kts 14°
2026-04-23 00:57 39.52419 -112.37813 21732 ft 397 kts 15°
2026-04-23 00:57 39.54918 -112.36374 21432 ft 390 kts 15°
2026-04-23 00:58 39.57409 -112.34940 20937 ft 390 kts 16°
2026-04-23 00:58 39.59849 -112.33527 20687 ft 380 kts 17°
2026-04-23 00:58 39.62246 -112.32138 20242 ft 375 kts 17°
2026-04-23 00:58 39.64613 -112.30771 19778 ft 370 kts 18°
2026-04-23 00:59 39.66946 -112.29420 19284 ft 364 kts 18°
2026-04-23 00:59 39.69259 -112.28079 18650 ft 366 kts 19°
2026-04-23 00:59 39.71583 -112.26795 18367 ft 359 kts 17°
2026-04-23 00:59 39.73894 -112.25652 18053 ft 353 kts 15°
2026-04-23 01:00 39.76197 -112.24599 17671 ft 349 kts 14°
2026-04-23 01:00 39.78483 -112.23582 17278 ft 346 kts 14°
2026-04-23 01:00 39.80749 -112.22569 16922 ft 343 kts 14°
2026-04-23 01:00 39.82984 -112.21552 16593 ft 339 kts 14°
2026-04-23 01:01 39.85194 -112.20533 16239 ft 335 kts 14°
2026-04-23 01:01 39.87380 -112.19515 15888 ft 332 kts 14°
2026-04-23 01:01 39.89548 -112.18500 15530 ft 330 kts 15°
2026-04-23 01:01 39.91697 -112.17491 15185 ft 327 kts 15°
2026-04-23 01:02 39.93832 -112.16487 14836 ft 325 kts 15°
2026-04-23 01:02 39.95950 -112.15493 14498 ft 322 kts 15°
2026-04-23 01:02 39.98048 -112.14509 14160 ft 320 kts 15°
2026-04-23 01:02 40.00133 -112.13528 13828 ft 317 kts 15°
2026-04-23 01:03 40.02201 -112.12555 13461 ft 315 kts 16°
2026-04-23 01:03 40.04250 -112.11590 13093 ft 312 kts 15°
2026-04-23 01:03 40.06290 -112.10629 12673 ft 311 kts 15°
2026-04-23 01:03 40.08322 -112.09669 12297 ft 309 kts 15°
2026-04-23 01:04 40.10336 -112.08719 11933 ft 307 kts 15°
2026-04-23 01:04 40.12342 -112.07772 11579 ft 305 kts 15°
2026-04-23 01:04 40.16311 -112.05893 10966 ft 301 kts 15°
2026-04-23 01:05 40.18253 -112.04973 10950 ft 290 kts 15°
2026-04-23 01:05 40.20109 -112.04089 10958 ft 281 kts 15°
2026-04-23 01:05 40.21936 -112.03223 10965 ft 279 kts 15°
2026-04-23 01:05 40.23763 -112.02363 10967 ft 279 kts 15°
2026-04-23 01:06 40.25590 -112.01504 10970 ft 279 kts 15°
2026-04-23 01:06 40.27414 -112.00641 10972 ft 278 kts 15°
2026-04-23 01:06 40.29238 -111.99778 10972 ft 279 kts 15°
2026-04-23 01:06 40.31061 -111.98918 10973 ft 279 kts 15°
2026-04-23 01:07 40.32886 -111.98054 10972 ft 279 kts 15°
2026-04-23 01:07 40.34709 -111.97189 10967 ft 279 kts 15°
2026-04-23 01:07 40.36534 -111.96320 10965 ft 279 kts 15°
2026-04-23 01:07 40.38356 -111.95451 10968 ft 279 kts 15°
2026-04-23 01:08 40.40214 -111.94850 10976 ft 271 kts 355°
2026-04-23 01:08 40.42013 -111.95318 10984 ft 262 kts 335°
2026-04-23 01:08 40.43783 -111.95969 10986 ft 267 kts 345°
2026-04-23 01:08 40.45630 -111.96281 10991 ft 269 kts 350°
2026-04-23 01:09 40.47501 -111.96457 11009 ft 270 kts 351°
2026-04-23 01:09 40.49380 -111.96603 11002 ft 270 kts 351°
2026-04-23 01:09 40.51256 -111.96760 11005 ft 270 kts 351°
2026-04-23 01:09 40.53125 -111.96938 11009 ft 270 kts 350°
2026-04-23 01:10 40.54997 -111.97138 11008 ft 270 kts 349°
2026-04-23 01:10 40.56865 -111.97354 11008 ft 269 kts 349°
2026-04-23 01:10 40.58732 -111.97578 11010 ft 269 kts 349°
2026-04-23 01:10 40.60551 -111.98008 11006 ft 262 kts 331°
2026-04-23 01:11 40.61973 -111.99375 11010 ft 251 kts 303°
2026-04-23 01:11 40.62654 -112.01420 11008 ft 244 kts 275°
2026-04-23 01:11 40.62435 -112.03604 11008 ft 244 kts 247°
2026-04-23 01:11 40.61372 -112.05353 11010 ft 252 kts 218°
2026-04-23 01:12 40.59724 -112.06195 11007 ft 262 kts 190°
2026-04-23 01:12 40.57902 -112.06190 11010 ft 268 kts 181°
2026-04-23 01:12 40.56019 -112.06025 11009 ft 268 kts 181°
2026-04-23 01:12 40.54180 -112.05841 11008 ft 268 kts 181°
2026-04-23 01:13 40.52316 -112.05632 11006 ft 269 kts 181°
2026-04-23 01:13 40.50453 -112.05436 11001 ft 269 kts 181°
2026-04-23 01:13 40.48589 -112.05242 10995 ft 268 kts 181°
2026-04-23 01:13 40.46729 -112.05035 10992 ft 268 kts 180°
2026-04-23 01:14 40.44865 -112.04843 10972 ft 268 kts 180°
2026-04-23 01:14 40.43002 -112.04601 10950 ft 272 kts 171°
2026-04-23 01:14 40.41283 -112.03543 10602 ft 279 kts 143°
2026-04-23 01:14 40.40092 -112.01531 10199 ft 285 kts 115°
2026-04-23 01:15 40.39554 -111.99017 9819 ft 287 kts 99°
2026-04-23 01:15 40.39635 -111.96443 9412 ft 283 kts 69°
2026-04-23 01:15 40.40700 -111.94385 9109 ft 268 kts 32°
2026-04-23 01:15 40.42295 -111.93445 9010 ft 241 kts
2026-04-23 01:16 40.43904 -111.93406 8882 ft 221 kts 351°
2026-04-23 01:16 40.45362 -111.93585 8762 ft 201 kts 347°
2026-04-23 01:16 40.46705 -111.93752 8622 ft 187 kts 347°
2026-04-23 01:16 40.47956 -111.93899 8500 ft 175 kts 347°
2026-04-23 01:17 40.49145 -111.94038 8277 ft 169 kts 347°
2026-04-23 01:17 40.50311 -111.94174 8053 ft 167 kts 349°
2026-04-23 01:17 40.51471 -111.94309 8003 ft 168 kts 349°
2026-04-23 01:17 40.52631 -111.94443 8009 ft 167 kts 348°
2026-04-23 01:18 40.53793 -111.94577 8013 ft 168 kts 349°
2026-04-23 01:18 40.54957 -111.94712 8010 ft 168 kts 349°
2026-04-23 01:18 40.56092 -111.94841 7857 ft 164 kts 348°
2026-04-23 01:18 40.57244 -111.94975 7476 ft 165 kts 350°
2026-04-23 01:19 40.58379 -111.95106 7077 ft 167 kts 352°
2026-04-23 01:19 40.59542 -111.95240 6696 ft 168 kts 354°
2026-04-23 01:19 40.60711 -111.95375 6338 ft 168 kts 355°
2026-04-23 01:19 40.61862 -111.95508 6011 ft 163 kts 354°
2026-04-23 01:20 40.62974 -111.95636 6020 ft 157 kts 353°
2026-04-23 01:20 40.64051 -111.95760 6008 ft 154 kts 353°
2026-04-23 01:20 40.65112 -111.95883 6007 ft 152 kts 353°
2026-04-23 01:20 40.66165 -111.96004 6008 ft 151 kts 353°
2026-04-23 01:21 40.67211 -111.96125 6008 ft 151 kts 353°
2026-04-23 01:21 40.68259 -111.96246 5998 ft 151 kts 353°
2026-04-23 01:21 40.69309 -111.96368 5886 ft 151 kts 352°
2026-04-23 01:21 40.70352 -111.96489 5717 ft 150 kts 352°
2026-04-23 01:22 40.71395 -111.96611 5525 ft 150 kts 351°
2026-04-23 01:22 40.72430 -111.96731 5298 ft 149 kts 352°
2026-04-23 01:22 40.73464 -111.96841 5027 ft 149 kts 352°
2026-04-23 01:22 40.74495 -111.96966 4806 ft 149 kts 352°
2026-04-23 01:23 40.75531 -111.97084 4636 ft 149 kts 353°
2026-04-23 01:23 40.76560 -111.97195 4453 ft 148 kts 353°
2026-04-23 01:23 40.77582 -111.97327 4282 ft 146 kts 352°
2026-04-23 01:23 40.78512 -111.97443 4233 ft 113 kts 354°
2026-04-23 01:24 40.79083 -111.97502 4234 ft 56 kts 354°
2026-04-23 01:24 40.79369 -111.97545 4231 ft 36 kts 344°
2026-04-23 01:24 40.79548 -111.97663 4232 ft 19 kts 322°
2026-04-23 01:24 40.79592 -111.97709 4232 ft 6 kts 322°
2026-04-23 01:25 40.79611 -111.97728 4232 ft 4 kts 323°
2026-04-23 01:25 40.79622 -111.97739 4234 ft 0 kts 323°
2026-04-23 01:26 40.79630 -111.97745 4234 ft 7 kts 327°
2026-04-23 01:26 40.79681 -111.97811 4234 ft 7 kts 288°
2026-04-23 01:26 40.79680 -111.97849 4235 ft 6 kts 256°
2026-04-23 01:26 40.79655 -111.97880 4234 ft 4 kts 199°
2026-04-23 01:27 40.79634 -111.97880 4233 ft 1 kts 149°
2026-04-23 01:27 40.79627 -111.97879 4233 ft 2 kts 168°
2026-04-23 01:27 40.79612 -111.97875 4235 ft 6 kts 169°
2026-04-23 01:27 40.79511 -111.97867 4235 ft 18 kts 175°
2026-04-23 01:28 40.79393 -111.97852 4235 ft 16 kts 174°
2026-04-23 01:28 40.79286 -111.97841 4235 ft 14 kts 175°
2026-04-23 01:28 40.79209 -111.97794 4235 ft 11 kts 111°
2026-04-23 01:28 40.79169 -111.97727 4235 ft 9 kts 170°
2026-04-23 01:29 40.79109 -111.97722 4235 ft 8 kts 178°
2026-04-23 01:29 40.79054 -111.97718 4235 ft 9 kts 175°
2026-04-23 01:29 40.78990 -111.97709 4235 ft 12 kts 175°
2026-04-23 01:29 40.78885 -111.97697 4235 ft 15 kts 178°
2026-04-23 01:30 40.78826 -111.97783 4235 ft 13 kts 263°
2026-04-23 01:30 40.78820 -111.97901 4235 ft 12 kts 263°
2026-04-23 01:30 40.78810 -111.98010 4235 ft 11 kts 265°
2026-04-23 01:30 40.78804 -111.98110 4235 ft 10 kts 265°
2026-04-23 01:31 40.78796 -111.98219 4235 ft 17 kts 264°
2026-04-23 01:31 40.78783 -111.98413 4235 ft 22 kts 265°
2026-04-23 01:31 40.78768 -111.98596 4235 ft 13 kts 267°
2026-04-23 01:31 40.78762 -111.98709 4235 ft 8 kts 264°
2026-04-23 01:32 40.78766 -111.98768 4235 ft 5 kts 307°
2026-04-23 01:32 40.78799 -111.98773 4235 ft 5 kts
2026-04-23 01:32 40.78824 -111.98769 4235 ft 1 kts
2026-04-23 01:32 40.78831 -111.98768 4235 ft 0 kts
2026-04-23 01:33 40.78833 -111.98768 4235 ft 0 kts
2026-04-23 01:35 40.62633 -111.95596 4235 ft 135 kts 353°